Location: Buckland
(65.9785°N, 161.1281°W)
Time: 23:44:35
(UTC+00:00)

Transit 4A - Pass Details

Date: 26 November 2020
Orbit: 864 x 980 km, 66.8° (Epoch: 20 January)

Event Time Altitude Azimuth Distance (km) Brightness Sun altitude
Rises 17:49:50 0° 150° (SSE) 3,656 12.0 -11.7°
Reaches altitude 10° 17:54:10 10° 122° (ESE) 2,729 11.9 -11.3°
Maximum altitude 17:56:31 12° 100° (E) 2,572 11.5 -11.1°
Drops below altitude 10° 17:58:53 10° 78° (ENE) 2,743 11.1 -10.9°
Sets 18:03:15 0° 51° (NE) 3,695 11.3 -10.5°
